Location: Bydgoszcz
(53.1235°N, 18.0084°E)
Time: 20:31:07
(UTC+02:00)

ISS - Pass Details

Date: 23 April 2026
Orbit: 414 x 424 km, 51.6° (Epoch: 12 May)

Event Time Altitude Azimuth Distance (km) Brightness Sun altitude
Exits shadow 04:44:09 - 221° (SW) 1,597 -1.4 -7.2°
Reaches altitude 10° 04:44:26 10° 219° (SW) 1,496 -1.6 -7.1°
Maximum altitude 04:47:27 32° 155° (SSE) 749 -2.5 -6.7°
Drops below altitude 10° 04:50:31 10° 90° (E) 1,508 0.1 -6.3°
Sets 04:52:45 0° 80° (E) 2,378 1.6 -6.1°
